EW1804 Weather Reports


time (UTC)temp
F
wind
direction
speed
knots
gust
knots
rain 1hr
in
rain 24hr
in
rain mn
in
humidity
%
barometer
mb
20260505091504 42 216 6.1 12.2 0.00 0.00 0.00 88 1009.7
20260505091003 42 218 7.0 12.2 0.00 0.00 0.00 89 1009.7
20260505090503 42 218 7.0 11.3 0.00 0.00 0.00 88 1009.6
20260505090024 43 219 6.1 9.6 0.00 0.00 0.00 88 1009.5
20260505085503 43 221 6.1 12.2 0.00 0.00 0.00 88 1009.3
20260505085024 43 222 6.1 12.2 0.00 0.00 0.00 88 1009.3
20260505084503 43 225 6.1 12.2 0.00 0.00 0.00 88 1009.2
20260505084003 43 229 7.0 12.2 0.00 0.00 0.00 87 1009.2
20260505083503 43 228 6.1 12.2 0.00 0.00 0.00 87 1008.9
20260505083003 43 228 6.1 12.2 0.00 0.00 0.00 87 1008.9
20260505082503 44 232 7.0 13.0 0.00 0.00 0.00 86 1009.0
20260505082024 44 234 7.0 13.0 0.00 0.00 0.00 86 1008.9
20260505081503 44 238 7.0 11.3 0.00 0.00 0.00 86 1008.8
20260505081003 44 240 7.8 11.3 0.00 0.00 0.00 86 1008.8
20260505080503 44 237 7.0 11.3 0.00 0.00 0.00 87 1008.8
20260505080003 43 231 6.1 10.4 0.00 0.00 0.00 87 1008.6
20260505075503 43 228 6.1 9.6 0.00 0.00 0.00 87 1008.6
20260505075003 43 226 6.1 12.2 0.00 0.00 0.00 87 1008.5
20260505074503 43 223 6.1 12.2 0.00 0.00 0.00 87 1008.5
20260505074003 43 222 5.2 8.7 0.00 0.00 0.00 87 1008.4
20260505073524 43 221 5.2 8.7 0.00 0.00 0.00 87 1008.4
20260505073003 43 222 5.2 12.2 0.00 0.00 0.00 87 1008.3
20260505072524 43 221 6.1 12.2 0.00 0.00 0.00 87 1008.2
20260505072024 43 218 6.1 12.2 0.00 0.00 0.00 87 1008.2
20260505071503 43 215 6.1 12.2 0.00 0.01 0.00 87 1008.0
20260505071003 43 215 7.0 12.2 0.00 0.01 0.00 87 1008.0
20260505070503 43 216 7.0 13.0 0.00 0.01 0.00 87 1007.9
20260505070003 43 218 7.0 13.0 0.00 0.01 0.00 87 1007.7
20260505065503 44 221 7.0 13.0 0.00 0.01 0.00 86 1007.7
20260505065003 44 221 7.0 13.0 0.00 0.01 0.00 86 1007.5
20260505064524 44 222 7.0 12.2 0.00 0.01 0.00 86 1007.5
20260505064003 44 224 7.0 12.2 0.00 0.01 0.00 86 1007.5
20260505063503 44 225 7.0 13.0 0.00 0.01 0.00 85 1007.4
20260505063003 44 222 7.0 13.0 0.00 0.01 0.00 85 1007.3
20260505062503 44 221 7.0 11.3 0.00 0.01 0.00 85 1007.3
20260505062003 44 220 7.0 13.0 0.00 0.01 0.00 84 1007.2
20260505061503 44 217 6.1 13.0 0.00 0.01 0.00 84 1007.1
20260505061003 45 216 6.1 10.4 0.00 0.01 0.00 84 1007.1
20260505060524 45 219 6.1 10.4 0.00 0.01 0.00 84 1006.9
20260505060024 45 221 6.1 10.4 0.00 0.01 0.00 84 1006.7
20260505055525 45 222 6.1 13.0 0.00 0.01 0.00 83 1006.5
20260505055002 45 221 6.1 13.0 0.00 0.01 0.00 83 1006.5
20260505054502 45 218 6.1 11.3 0.00 0.01 0.00 83 1006.4
20260505054002 45 220 6.1 11.3 0.00 0.01 0.00 83 1006.4
20260505053523 45 222 6.1 11.3 0.00 0.01 0.00 83 1006.4
20260505053002 45 217 7.0 13.0 0.00 0.01 0.00 82 1006.1
20260505052523 45 217 7.0 13.0 0.00 0.02 0.00 82 1006.0
20260505052002 45 221 7.0 12.2 0.00 0.02 0.00 82 1005.9
20260505051523 46 222 7.0 13.0 0.00 0.02 0.00 82 1005.8
20260505051002 46 216 7.0 13.0 0.00 0.02 0.00 81 1005.7
20260505050502 46 213 7.0 10.4 0.00 0.02 0.00 80 1005.5
20260505041502 47 220 6.1 11.3 0.00 0.02 0.00 79 1005.2
20260505041023 47 219 6.1 11.3 0.00 0.02 0.00 78 1005.2
20260505040502 47 217 5.2 9.6 0.00 0.02 0.00 78 1005.1
20260505040002 47 217 4.3 9.6 0.00 0.02 0.00 77 1005.2
20260505035502 47 219 4.3 6.1 0.00 0.02 0.00 77 1005.1
20260505035002 48 224 4.3 8.7 0.00 0.02 0.00 76 1005.0
20260505034523 48 227 5.2 8.7 0.00 0.02 0.00 75 1005.0
20260505034023 48 232 5.2 11.3 0.00 0.02 0.00 75 1005.0
20260505033502 49 238 6.1 11.3 0.00 0.02 0.00 74 1004.8
20260505033002 49 240 6.1 10.4 0.00 0.02 0.00 74 1004.7
20260505032502 49 242 5.2 10.4 0.00 0.02 0.00 74 1004.6
20260505032002 49 241 5.2 10.4 0.00 0.02 0.00 73 1004.5
20260505031502 49 240 7.0 12.2 0.00 0.02 0.00 73 1004.5
20260505031023 49 241 7.0 13.0 0.00 0.02 0.00 73 1004.5
20260505030502 49 241 7.0 13.0 0.00 0.02 0.00 73 1004.4
20260505030002 49 239 7.0 10.4 0.00 0.02 0.00 72 1004.4
20260505025502 49 237 5.2 10.4 0.00 0.02 0.02 72 1004.3
20260505025002 48 236 4.3 10.4 0.00 0.02 0.02 72 1004.2
20260505024502 48 233 5.2 9.6 0.00 0.02 0.02 72 1004.2
20260505024002 48 231 5.2 9.6 0.00 0.02 0.02 71 1004.2
20260505023502 48 231 5.2 11.3 0.00 0.02 0.02 71 1004.2
20260505023002 48 232 6.1 11.3 0.00 0.02 0.02 71 1004.0
20260505022502 48 235 6.1 11.3 0.00 0.02 0.02 70 1003.9
20260505022002 49 235 6.1 11.3 0.00 0.02 0.02 70 1003.8
20260505021503 49 231 7.0 14.8 0.00 0.02 0.02 70 1003.7
20260505021002 49 233 7.8 14.8 0.00 0.02 0.02 69 1003.7
20260505020502 49 233 8.7 16.5 0.00 0.02 0.02 69 1003.7
20260505020002 50 228 8.7 16.5 0.00 0.02 0.02 69 1003.6
20260505015502 50 227 8.7 14.8 0.00 0.02 0.02 69 1003.6
20260505015002 50 229 7.8 13.9 0.00 0.02 0.02 70 1003.7
20260505014523 50 230 7.8 12.2 0.00 0.02 0.02 69 1003.7
20260505014003 50 229 7.0 11.3 0.00 0.02 0.02 68 1003.6
20260505013502 51 233 7.0 16.5 0.00 0.02 0.02 68 1003.5
20260505013002 51 236 7.0 16.5 0.00 0.02 0.02 66 1003.5
20260505012502 51 240 9.6 18.2 0.00 0.02 0.02 65 1003.4
20260505012002 52 241 12.2 18.2 0.00 0.02 0.02 65 1003.6
20260505011502 52 243 12.2 20.0 0.00 0.03 0.02 65 1003.4
20260505011002 52 243 11.3 20.0 0.00 0.03 0.02 64 1003.4
20260505010502 52 239 11.3 20.0 0.00 0.03 0.02 63 1003.4
20260505010002 52 238 11.3 20.0 0.00 0.04 0.02 63 1003.5
20260505005502 52 242 11.3 20.9 0.00 0.04 0.02 63 1003.4
20260505005002 52 243 11.3 20.9 0.00 0.05 0.02 63 1003.4
20260505004502 52 244 11.3 19.1 0.00 0.06 0.02 62 1003.4
20260505004002 52 244 12.2 20.0 0.00 0.06 0.02 60 1003.4
20260505003502 52 246 13.0 22.6 0.00 0.06 0.02 60 1003.1
20260505003002 52 245 13.0 22.6 0.00 0.06 0.02 59 1003.1
20260505002502 52 241 12.2 21.7 0.00 0.07 0.02 57 1003.0
20260505002002 52 238 10.4 20.0 0.00 0.08 0.02 56 1003.2
20260505001502 52 235 8.7 20.0 0.00 0.08 0.02 57 1003.0
20260505001023 51 229 7.8 14.8 0.00 0.09 0.02 58 1003.0
20260505000523 51 226 7.8 14.8 0.00 0.09 0.02 59 1002.8
20260505000002 51 230 7.8 14.8 0.00 0.09 0.02 59 1002.6
20260504235502 51 231 7.0 13.0 0.00 0.10 0.02 60 1002.5
20260504235002 51 228 7.0 13.0 0.00 0.12 0.02 60 1002.3
20260504234502 50 222 7.0 13.0 0.00 0.17 0.02 60 1002.2
20260504234002 50 221 7.0 11.3 0.00 0.19 0.02 60 1002.2
20260504233502 50 226 6.1 11.3 0.00 0.22 0.02 60 1002.2
20260504233002 51 228 7.0 11.3 0.00 0.23 0.02 60 1002.2
20260504232502 51 228 7.0 13.0 0.00 0.25 0.02 60 1002.1
20260504232002 51 228 7.8 15.6 0.00 0.29 0.02 60 1002.2
20260504231502 51 226 7.8 15.6 0.00 0.31 0.02 59 1002.1
20260504231002 52 227 7.8 16.5 0.00 0.35 0.02 58 1001.9
20260504230523 52 227 7.0 16.5 0.00 0.38 0.02 57 1001.8
20260504230002 52 230 8.7 16.5 0.00 0.39 0.02 55 1001.7
20260504225502 52 234 10.4 17.4 0.00 0.41 0.02 55 1001.7
20260504225002 53 237 10.4 19.1 0.00 0.43 0.02 54 1001.8
20260504224502 53 239 10.4 19.1 0.00 0.43 0.02 53 1001.7
20260504224002 53 243 10.4 19.1 0.00 0.44 0.02 53 1001.7
20260504223523 53 244 12.2 22.6 0.00 0.45 0.02 53 1001.8
20260504223002 53 246 12.2 22.6 0.00 0.46 0.02 53 1001.6
20260504222502 53 248 11.3 20.9 0.00 0.47 0.02 54 1001.5
20260504222002 53 254 12.2 23.5 0.00 0.48 0.02 53 1001.3
20260504221502 53 254 12.2 26.9 0.00 0.49 0.02 52 1001.4
20260504221002 54 249 12.2 26.9 0.00 0.49 0.02 52 1001.4
20260504220502 54 253 13.0 27.8 0.00 0.50 0.02 52 1001.3
20260504220023 54 253 13.0 27.8 0.00 0.50 0.02 51 1001.4
20260504215502 54 250 13.0 26.1 0.00 0.51 0.02 52 1001.2
20260504215023 54 254 14.8 26.1 0.00 0.53 0.02 51 1001.2
20260504214502 54 249 16.5 26.9 0.00 0.54 0.02 51 1001.1
20260504214002 54 249 15.6 26.9 0.00 0.57 0.02 51 1001.0
20260504213502 54 252 14.8 30.4 0.00 0.61 0.02 50 1000.9
20260504213002 54 250 13.9 30.4 0.00 0.63 0.02 50 1000.9
20260504212502 54 249 14.8 30.4 0.00 0.64 0.02 51 1000.7
20260504212002 54 251 15.6 30.4 0.00 0.65 0.02 51 1000.8
20260504211502 54 254 15.6 26.1 0.00 0.67 0.02 51 1000.6
20260504211002 54 254 15.6 28.7 0.00 0.68 0.02 50 1000.5
20260504210502 54 256 14.8 28.7 0.00 0.68 0.02 51 1000.5
20260504210002 54 254 17.4 32.2 0.00 0.69 0.02 52 1000.3
20260504205502 54 254 18.2 32.2 0.00 0.69 0.02 52 1000.2
20260504205002 54 255 18.2 31.3 0.00 0.69 0.02 53 1000.1
20260504204502 54 256 17.4 31.3 0.00 0.69 0.02 54 1000.1
20260504204002 54 258 17.4 30.4 0.00 0.69 0.02 55 1000.0
20260504203502 54 259 17.4 30.4 0.00 0.69 0.02 55 1000.0
20260504203002 54 259 15.6 27.8 0.00 0.69 0.02 56 999.8
20260504202502 54 261 17.4 27.8 0.00 0.69 0.02 58 999.7
20260504202002 54 266 17.4 28.7 0.00 0.70 0.02 58 999.6
20260504201502 54 262 15.6 29.5 0.00 0.70 0.02 59 999.4
20260504201002 54 256 15.6 29.5 0.00 0.71 0.02 61 999.5
20260504200502 55 256 15.6 29.5 0.00 0.71 0.02 61 999.6
20260504200002 54 256 17.4 32.2 0.00 0.71 0.02 62 999.2
20260504195502 54 256 19.1 32.2 0.00 0.71 0.02 63 999.1
20260504195002 54 255 18.2 31.3 0.00 0.71 0.02 64 999.2
20260504194502 53 258 15.6 26.9 0.00 0.71 0.02 66 998.9
20260504194002 53 261 15.6 26.1 0.00 0.71 0.02 67 998.9
20260504193502 52 258 15.6 29.5 0.00 0.71 0.02 69 998.8
20260504193002 52 258 15.6 29.5 0.00 0.71 0.02 70 998.8
20260504192502 51 256 18.2 32.2 0.00 0.71 0.02 70 998.7
20260504192002 51 255 16.5 32.2 0.00 0.71 0.02 70 998.6
20260504191502 52 257 13.9 26.9 0.00 0.71 0.02 71 998.6
20260504191002 50 253 16.5 31.3 0.00 0.71 0.02 73 998.5
20260504190502 50 254 17.4 31.3 0.00 0.71 0.02 72 998.4
20260504190002 51 255 14.8 25.2 0.00 0.71 0.02 73 998.2
20260504185502 50 254 15.6 26.1 0.00 0.71 0.02 75 998.1
20260504185023 50 254 15.6 28.7 0.00 0.72 0.02 75 998.1
20260504184502 50 252 15.6 28.7 0.00 0.72 0.02 75 998.0
20260504184023 50 250 15.6 27.8 0.00 0.72 0.02 75 998.0
20260504183502 49 253 14.8 26.1 0.00 0.73 0.02 77 997.9
20260504183023 49 252 15.6 28.7 0.00 0.73 0.02 78 997.9
20260504182502 48 250 15.6 28.7 0.00 0.73 0.02 79 997.7
20260504182002 48 251 16.5 29.5 0.00 0.73 0.02 79 997.6
20260504181503 47 252 16.5 29.5 0.00 0.73 0.02 80 997.6
20260504181002 47 250 15.6 26.1 0.00 0.73 0.02 80 997.6
20260504180502 47 253 14.8 26.9 0.00 0.73 0.02 80 997.6
20260504180002 47 251 15.6 26.9 0.00 0.73 0.02 80 997.4
20260504175502 47 251 14.8 25.2 0.00 0.73 0.02 80 997.4
20260504175002 47 256 13.9 28.7 0.00 0.73 0.02 80 997.2
20260504174502 48 256 13.9 28.7 0.00 0.73 0.02 80 997.2
20260504174002 47 257 15.6 28.7 0.00 0.73 0.02 82 997.1
20260504173502 46 256 17.4 28.7 0.00 0.73 0.02 82 997.0
20260504173002 46 254 16.5 32.2 0.00 0.73 0.02 82 996.9
20260504172502 46 256 15.6 32.2 0.00 0.73 0.02 82 996.7
20260504172002 46 254 15.6 34.8 0.00 0.73 0.02 83 996.6
20260504171502 46 252 17.4 34.8 0.00 0.73 0.02 83 996.2
20260504171002 46 255 17.4 30.4 0.00 0.73 0.02 83 996.2
20260504170502 46 255 17.4 30.4 0.00 0.73 0.02 82 996.2
20260504151002 44 256 17.4 31.3 0.00 0.73 0.02 84 993.3
20260504150502 44 256 18.2 31.3 0.00 0.73 0.02 83 993.2
20260504141002 44 268 20.0 34.8 0.00 0.73 0.02 81 990.9
20260504140502 44 264 20.9 36.5 0.00 0.73 0.02 80 990.9
20260504130523 42 258 19.1 33.0 0.00 0.73 0.02 87 988.1
20260504110502 40 251 20.9 37.4 0.00 0.73 0.02 91 982.7
20260504100502 39 243 15.6 34.8 0.00 0.73 0.02 95 979.8